Location: Domicella
(40.8833°N, 14.5833°E)
Time: 08:29:31
(UTC+00:00)

Terra - Pass Details

Date: 15 May 2026
Orbit: 689 x 690 km, 97.9° (Epoch: 6 June)

Event Time Altitude Azimuth Distance (km) Brightness Sun altitude
Exits shadow 19:45:46 10° 185° (S) 2,102 3.9 -15.3°
Maximum altitude 19:50:13 51° 260° (W) 869 2.5 -15.9°
Drops below altitude 10° 19:54:49 10° 337° (NNW) 2,149 5.4 -16.6°
Sets 19:57:08 0° 342° (NNW) 3,071 6.3 -16.9°
